ATLAS 5 CENTAUR DEB, 46643

Orbit data source: Space-Track

ATLAS 5 CENTAUR DEB, 46643 is space debris in HEO originally from a launch on Wed, 17 Sep 2014 UTC launched from the Air Force Eastern Test Range (AFETR). Debris objects in space refer to the collection of defunct objects orbiting the Earth. Examples of debris include non-operational satellites, rocket bodies, and fragments generated from explosions, collisions, or faulty payload assembly.

Loading next visibility...
Identifier
46643, 2014-055CT
Orbit
HEO
Last TLE update
1 day ago
Origin
Flag of USUnited Launch Alliance/Lockheed Martin (US)
Manufacturer
Unknown
Mission
Spacecraft
Bus & Motor
Unknown
Mass
Unknown
Launch date (UTC)
2014-09-17 (11 years ago)
Launch vehicle
Unknown
Launch site
Air Force Eastern Test Range (AFETR)
Object type
Payload
Rocket body
Debris
Shape & HBR
Unknown
Radar Cross Section
RCS unknown

Expand to show TLE details & history

TLE from 1 day ago
0 ATLAS 5 CENTAUR DEB
1 46643U 14055CT  25186.84355161 -.00000041  00000-0  00000-0 0  9999
2 46643  19.6736 182.5633 4911625 101.5658 315.5342  1.85045223 32063
Epoch: 2025-07-05T20:14Z
TLE epoch observation values (Epoch: 2025-07-05T20:14:42.859Z)
Latitude
-0.00007°
Longitude
-45.19238°
Altitude
17,179.174 km
Speed
4.429 km/s
True Right ascension
12h 10m 14s
True Declination
0° 00' 00"
Sunlit
Object was in daylight at epoch
Visualization orbit readout
Latitude
3.49986°
Longitude
-35.46745°
Altitude
15,098.822 km
Speed
4.785 km/s
Apparent Right ascension
13h 26m 05s
Apparent Declination
-8° 53' 03"
Sunlit
Object is in daylight
Visualization observer readout
Local Sidereal Time
10:27:37
Azimuth
129.385° SE
Elevation
26.123°
Doppler factor
1
Orbital elements
Apogee altitude
35,415.074 km
Perigee altitude
7,883.188 km
Semi-major axis
28,027.268 km
Eccentricity
0.49116
Inclination
19.6736°
RAAN
182.5633°
Arg. of periapsis
101.5658°
True anomaly
Unknown
Mean anomaly
315.5342°
Eccentric anomaly
Unknown
Mean motion
0.46256 °/min
Orbital period
778.27 mins
BSTAR
0
Loading maneuver chart data...
Loading SW <> Apogee altitude chart data...

ATLAS 5 CENTAUR DEB Visibility forecast

Observer location: undefined°, undefined°

Span
Click to sort rows by Start time (UTC) header in descending order
Start Az.
Max El. time (UTC)
Max El. Az.
Max El.
End time (UTC)
End Az.
39 mins2025-07-06 22:27:29.034Z129.414° SE2025-07-06 22:27:29.034Z129.414° SE23.747°2025-07-06 23:06:29.034Z99.347° ESE
556 mins2025-07-07 13:11:29.034Z255.341° W2025-07-07 14:05:29.034Z203.338° SW24.979°2025-07-07 22:27:29.034Z194.669° SSW
|